QPF
0.00 0.00 0.00 0.00 0.00 0.00 0.00 0.00 0.00 0.00 0.00 0.00 0.00 0.00 0.00 0.00 0.00 0.00 0.00 0.00 0.00 0.00 0.00 0.00 0.00 0.00 0.00 0.00 0.00 0.00 0.00 0.00 0.00 0.00 0.00 0.00 0.00 0.00 0.00 0.00 0.00 0.00
0.00 0.00 0.00 0.00 0.00 0.00 0.00 0.00 0.00 0.00 0.00 0.00 0.00 0.00 0.00 0.00 0.00 0.00 0.00 0.00 0.00 0.00 0.00 0.00 0.00 0.00 0.00 0.00 0.00 0.00 0.00 0.00 0.00 0.00 0.00 0.00 0.00 0.00 0.00 0.00 0.00 0.00
0.00 0.00 0.00 0.00 0.00 0.00 0.00 0.00 0.00 0.00 0.00 0.00 0.00 0.00 0.00 0.00 0.00 0.00 0.00 0.00 0.00 0.00 0.00 0.00 0.00 0.00 0.00 0.00 0.00 0.00 0.00 0.00 0.00 0.00 0.00 0.00 0.00 0.00 0.00 0.00 0.00 0.00
0.00 0.00 0.00 0.00 0.00 0.00 0.00 0.00 0.00 0.00 0.00 0.00 0.00 0.00 0.00 0.00 0.00 0.00 0.00 0.00 0.00 0.00 0.00 0.00 0.00 0.00 0.00 0.00 0.00 0.00 0.00 0.00 0.00 0.00 0.00 0.00 0.00 0.00 0.00 0.00 0.00 0.00
0.00 0.00 0.00 0.00 0.00 0.00 0.00 0.00 0.00 0.00 0.00 0.00 0.00 0.00 0.00 0.00 0.00 0.00 0.00 0.00 0.00 0.00 0.00 0.00 0.00 0.00 0.00 0.00 0.00 0.00 0.00 0.00 0.00 0.00 0.00 0.00 0.00 0.00 0.00 0.00 0.00 0.00
0.00 0.00 0.00 0.00 0.00 0.00 0.00 0.00 0.00 0.00 0.00 0.00 0.00 0.00 0.00 0.00 0.00 0.00 0.00 0.00 0.00 0.00 0.00 0.00 0.00 0.00 0.00 0.00 0.00 0.00 0.00 0.00 0.00 0.00 0.00 0.00 0.00 0.00 0.00 0.00 0.00 0.00
0.00 0.00 0.00 0.00 0.00 0.00 0.00 0.00 0.00 0.00 0.00 0.00 0.00 0.00 0.00 0.00 0.00 0.00 0.00 0.00 0.00 0.00 0.00 0.00 0.00 0.00 0.00 0.00 0.00 0.00 0.00 0.00 0.00 0.00 0.00 0.00 0.00 0.00 0.00 0.00 0.00 0.00
0.00 0.00 0.00 0.00 0.00 0.00 0.00 0.00 0.00 0.00 0.00 0.00 0.00 0.00 0.00 0.00 0.00 0.00 0.00 0.00 0.00 0.00 0.00 0.00 0.00 0.00 0.00 0.00 0.00 0.00 0.00 0.00 0.00 0.00 0.00 0.00 0.00 0.00 0.00 0.00 0.00 0.00
0.00 0.00 0.00 0.00 0.00 0.00 0.00 0.00 0.00 0.00 0.00 0.00 0.00 0.00 0.00 0.00 0.00 0.00 0.00 0.00 0.00 0.00 0.00 0.00 0.00 0.00 0.00 0.00 0.00 0.00 0.00 0.00 0.00 0.00 0.00 0.00 0.00 0.00 0.00 0.00 0.00 0.00
0.00 0.00 0.00 0.00 0.00 0.00 0.00 0.00 0.00 0.00 0.00 0.00 0.00 0.00 0.00 0.00 0.00 0.00 0.00 0.00 0.00 0.00 0.00 0.00 0.00 0.00 0.00 0.00 0.00 0.00 0.00 0.00 0.00 0.00 0.00 0.00 0.00 0.00 0.00 0.00 0.00 0.00
0.00 0.00 0.00 0.00 0.00 0.00 0.00 0.00 0.00 0.00 0.00 0.00 0.00 0.00 0.00 0.00 0.00 0.00 0.00 0.00 0.00 0.00 0.00 0.00 0.00 0.00 0.00 0.00 0.00 0.00 0.00 0.00 0.00 0.00 0.00 0.00 0.00 0.00 0.00 0.00 0.00 0.00
0.00 0.00 0.00 0.00 0.00 0.00 0.00 0.00 0.00 0.00 0.00 0.00 0.00 0.00 0.00 0.00 0.00 0.00 0.00 0.00 0.00 0.00 0.00 0.00 0.00 0.00 0.00 0.00 0.00 0.00 0.00 0.00 0.00 0.00 0.00 0.00 0.00 0.00 0.00 0.00 0.00 0.00
0.00 0.00 0.00 0.00 0.00 0.00 0.00 0.00 0.00 0.00 0.00 0.00 0.00 0.00 0.00 0.00 0.00 0.00 0.00 0.00 0.00 0.00 0.00 0.00 0.00 0.00 0.00 0.00 0.00 0.00 0.00 0.00 0.00 0.00 0.00 0.00 0.00 0.00 0.00 0.00 0.00 0.00
0.00 0.00 0.00 0.00 0.00 0.00 0.00 0.00 0.00 0.00 0.00 0.00 0.00 0.00 0.00 0.00 0.00 0.00 0.00 0.00 0.00 0.00 0.00 0.00 0.00 0.00 0.00 0.00 0.00 0.00 0.00 0.00 0.00 0.00 0.00 0.00 0.00 0.00 0.00 0.00 0.00 0.00
0.00 0.00 0.00 0.00 0.00 0.00 0.00 0.00 0.00 0.00 0.00 0.00 0.00 0.00 0.00 0.00 0.00 0.00 0.00 0.00 0.00 0.00 0.00 0.00 0.00 0.00 0.00 0.00 0.00 0.00 0.00 0.00 0.00 0.00 0.00 0.00 0.00 0.00 0.00 0.00 0.00 0.00
0.00 0.00 0.00 0.00 0.00 0.00 0.00 0.00 0.00 0.00 0.00 0.00 0.00 0.00 0.00 0.00 0.00 0.00 0.00 0.00 0.00 0.00 0.00 0.00 0.00 0.00 0.00 0.00 0.00 0.00 0.00 0.00 0.00 0.00 0.00 0.00 0.00 0.00 0.00 0.00 0.00 0.00
0.00 0.00 0.00 0.00 0.00 0.00 0.00 0.00 0.00 0.00 0.00 0.00 0.00 0.00 0.00 0.00 0.00 0.00 0.00 0.00 0.00 0.00 0.00 0.00 0.00 0.00 0.00 0.00 0.00 0.00 0.00 0.00 0.00 0.00 0.00 0.00 0.00 0.00 0.00 0.00 0.00 0.00
0.00 0.00 0.00 0.00 0.00 0.00 0.00 0.00 0.00 0.00 0.00 0.00 0.00 0.00 0.00 0.00 0.00 0.00 0.00 0.00 0.00 0.00 0.00 0.00 0.00 0.00 0.00 0.00 0.00 0.00 0.00 0.00 0.00 0.00 0.00 0.00 0.00 0.00 0.00 0.00 0.00 0.00
0.00 0.00 0.00 0.00 0.00 0.00 0.00 0.00 0.00 0.00 0.00 0.00 0.00 0.00 0.00 0.00 0.00 0.00 0.00 0.00 0.00 0.00 0.00 0.00 0.00 0.00 0.00 0.00 0.00 0.00 0.00 0.00 0.00 0.00 0.00 0.00 0.00 0.00 0.00 0.00 0.00 0.00
0.00 0.00 0.00 0.00 0.00 0.00 0.00 0.00 0.00 0.00 0.00 0.00 0.00 0.00 0.00 0.00 0.00 0.00 0.00 0.00 0.00 0.00 0.00 0.00 0.00 0.00 0.00 0.00 0.00 0.00 0.00 0.00 0.00 0.00 0.00 0.00 0.00 0.00 0.00 0.00 0.00 0.00
0.00 0.00 0.00 0.00 0.00 0.00 0.00 0.00 0.00 0.00 0.00 0.00 0.00 0.00 0.00 0.00 0.00 0.00 0.00 0.00 0.00 0.00 0.00 0.00 0.00 0.00 0.00 0.00 0.00 0.00 0.00 0.00 0.00 0.00 0.00 0.00 0.00 0.00 0.00 0.00 0.00 0.00
0.00 0.00 0.00 0.00 0.00 0.00 0.00 0.00 0.00 0.00 0.00 0.00 0.00 0.00 0.00 0.00 0.00 0.00 0.00 0.00 0.00 0.00 0.00 0.00 0.00 0.00 0.00 0.00 0.00 0.00 0.00 0.00 0.00 0.00 0.00 0.00 0.00 0.00 0.00 0.00 0.00 0.00
0.00 0.00 0.00 0.00 0.00 0.00 0.00 0.00 0.00 0.00 0.00 0.00 0.00 0.00 0.00 0.00 0.00 0.00 0.00 0.00 0.00 0.00 0.00 0.00 0.00 0.00 0.00 0.00 0.00 0.00 0.00 0.00 0.00 0.00 0.00 0.00 0.00 0.00 0.00 0.00 0.00 0.00
0.00 0.00 0.00 0.00 0.00 0.00 0.00 0.00 0.00 0.00 0.00 0.00 0.00 0.00 0.00 0.00 0.00 0.00 0.00 0.00 0.00 0.00 0.00 0.00 0.00 0.00 0.00 0.00 0.00 0.00 0.00 0.00 0.00 0.00 0.00 0.00 0.00 0.00 0.00 0.00 0.00 0.00
0.00 0.00 0.00 0.00 0.00 0.00 0.00 0.00 0.00 0.00 0.00 0.00 0.00 0.00 0.00 0.00 0.00 0.00 0.00 0.00 0.00 0.00 0.00 0.00 0.00 0.00 0.00 0.00 0.00 0.00 0.00 0.00 0.00 0.00 0.00 0.00 0.00 0.00 0.00 0.00 0.00 0.00
0.00 0.00 0.00 0.00 0.00 0.00 0.00 0.00 0.00 0.00 0.00 0.00 0.00 0.00 0.00 0.00 0.00 0.00 0.00 0.00 0.00 0.00 0.00 0.00 0.00 0.00 0.00 0.00 0.00 0.00 0.00 0.00 0.00 0.00 0.00 0.00 0.00 0.00 0.00 0.00 0.00 0.00
MSLP
1016.19 1016.47 1016.79 1017.03 1017.11 1017.19 1017.43 1017.75 1017.75 1017.95 1018.07 1018.19 1018.43 1018.47 1018.51 1018.43 1018.51 1018.63 1018.71 1018.83 1018.91 1019.03 1019.11 1019.19 1019.23 1019.39 1019.47 1019.63 1019.75 1019.95 1020.07 1020.15 1020.15 1020.19 1020.31 1020.39 1020.51 1020.55 1020.59 1020.55 1020.63 1020.71
1015.87 1016.11 1016.39 1016.67 1016.91 1016.99 1017.15 1017.19 1017.39 1017.59 1017.79 1017.87 1017.91 1018.03 1018.11 1018.27 1018.35 1018.43 1018.63 1018.79 1018.87 1018.95 1018.95 1019.03 1019.15 1019.27 1019.43 1019.59 1019.71 1019.95 1020.11 1020.15 1020.27 1020.03 1020.35 1020.43 1020.43 1020.47 1020.51 1020.47 1020.51 1020.51
1015.55 1015.95 1016.23 1016.51 1016.63 1016.75 1016.83 1016.91 1017.07 1017.23 1017.43 1017.47 1017.59 1017.79 1017.99 1017.99 1018.27 1018.31 1018.43 1018.63 1018.83 1018.91 1018.99 1018.99 1019.11 1019.19 1019.31 1019.47 1019.59 1019.79 1019.99 1020.11 1020.27 1020.07 1020.23 1020.39 1020.31 1020.47 1020.39 1020.35 1020.43 1020.47
1015.27 1015.43 1015.75 1015.95 1016.11 1016.35 1016.51 1016.83 1017.03 1017.11 1017.23 1017.51 1017.55 1017.47 1017.63 1017.79 1017.99 1018.27 1018.43 1018.51 1018.75 1018.87 1018.91 1018.99 1019.03 1019.11 1019.23 1019.39 1019.59 1019.79 1019.83 1019.91 1019.87 1019.95 1020.19 1020.27 1020.27 1020.31 1020.35 1020.31 1020.35 1020.43
1014.87 1015.15 1015.39 1015.63 1015.79 1015.95 1016.27 1016.63 1016.83 1016.95 1017.11 1017.03 1017.11 1017.31 1017.55 1017.75 1017.95 1018.15 1018.35 1018.47 1018.59 1018.79 1018.87 1018.95 1018.95 1019.07 1019.11 1019.31 1019.51 1019.83 1019.83 1019.91 1019.87 1019.95 1020.19 1020.35 1020.23 1020.31 1020.27 1020.35 1020.47 1020.51
1014.63 1014.83 1015.11 1015.43 1015.63 1015.91 1016.15 1016.31 1016.39 1016.63 1016.75 1016.95 1016.99 1017.03 1017.27 1017.43 1017.71 1017.95 1018.11 1018.35 1018.47 1018.63 1018.79 1018.87 1018.99 1018.99 1019.03 1019.19 1019.39 1019.63 1019.79 1019.91 1019.87 1019.99 1020.23 1020.35 1020.31 1020.27 1020.27 1020.31 1020.43 1020.55
1014.47 1014.71 1015.03 1015.23 1015.63 1015.79 1015.99 1015.99 1016.07 1016.23 1016.39 1016.39 1016.59 1016.95 1017.03 1017.35 1017.55 1017.67 1017.83 1018.03 1018.27 1018.47 1018.63 1018.75 1018.87 1018.95 1018.95 1019.11 1019.35 1019.51 1019.63 1019.71 1019.83 1019.99 1020.19 1020.27 1020.31 1020.39 1020.31 1020.35 1020.39 1020.51
1014.11 1014.31 1014.63 1015.03 1015.43 1015.67 1015.87 1015.87 1015.95 1016.03 1016.07 1016.31 1016.59 1016.59 1016.75 1017.03 1017.23 1017.39 1017.59 1017.79 1018.07 1018.27 1018.39 1018.47 1018.59 1018.71 1018.79 1018.95 1019.23 1019.43 1019.55 1019.55 1019.79 1019.95 1020.11 1020.23 1020.27 1020.43 1020.31 1020.31 1020.35 1020.51
1013.87 1014.15 1014.39 1014.79 1015.19 1015.43 1015.67 1015.75 1015.75 1015.79 1015.83 1016.19 1016.27 1016.35 1016.47 1016.63 1016.87 1017.07 1017.31 1017.55 1017.83 1017.99 1018.19 1018.35 1018.43 1018.55 1018.63 1018.83 1018.99 1019.15 1019.35 1019.43 1019.51 1019.75 1019.95 1020.15 1020.27 1020.23 1020.23 1020.27 1020.47 1020.47
1013.75 1013.87 1014.19 1014.47 1014.83 1014.95 1015.27 1015.39 1015.51 1015.63 1015.71 1015.91 1015.95 1016.07 1016.35 1016.35 1016.47 1016.75 1017.07 1017.39 1017.63 1017.79 1017.99 1018.15 1018.27 1018.39 1018.51 1018.59 1018.71 1018.83 1019.03 1019.19 1019.27 1019.47 1019.63 1019.79 1019.95 1019.99 1020.07 1020.27 1020.39 1020.51
1013.39 1013.63 1013.95 1014.15 1014.31 1014.43 1014.71 1014.95 1015.19 1015.43 1015.59 1015.75 1015.87 1016.03 1015.99 1016.19 1016.39 1016.51 1016.87 1017.15 1017.39 1017.51 1017.71 1017.87 1017.95 1018.07 1018.31 1018.43 1018.43 1018.43 1018.63 1018.79 1018.99 1019.19 1019.35 1019.47 1019.59 1019.71 1019.83 1020.03 1020.19 1020.31
1013.03 1013.23 1013.47 1013.67 1013.87 1014.07 1014.19 1014.43 1014.71 1015.07 1015.31 1015.47 1015.63 1015.87 1015.87 1015.95 1016.19 1016.39 1016.59 1016.83 1016.91 1017.07 1017.23 1017.39 1017.51 1017.71 1017.91 1018.07 1018.19 1018.31 1018.47 1018.59 1018.75 1018.91 1019.07 1019.19 1019.31 1019.43 1019.55 1019.67 1019.91 1019.99
1012.59 1012.71 1012.87 1013.19 1013.43 1013.67 1013.87 1014.07 1014.31 1014.51 1014.87 1015.19 1015.27 1015.55 1015.79 1015.91 1015.95 1016.15 1016.23 1016.43 1016.59 1016.71 1016.91 1017.03 1017.19 1017.35 1017.55 1017.71 1017.87 1018.07 1018.23 1018.47 1018.63 1018.71 1018.83 1018.95 1019.03 1019.11 1019.23 1019.39 1019.51 1019.59
1011.99 1012.15 1012.51 1012.71 1012.95 1013.31 1013.63 1013.79 1013.95 1014.15 1014.35 1014.59 1014.91 1015.31 1015.55 1015.67 1015.83 1015.95 1015.95 1016.11 1016.23 1016.43 1016.47 1016.63 1016.87 1017.11 1017.27 1017.43 1017.59 1017.79 1018.03 1018.23 1018.35 1018.55 1018.67 1018.75 1018.79 1018.83 1018.95 1019.07 1019.19 1019.27
1011.63 1011.87 1012.07 1012.43 1012.71 1013.03 1013.31 1013.51 1013.71 1013.87 1014.07 1014.27 1014.55 1014.83 1015.03 1015.23 1015.39 1015.63 1015.87 1016.03 1016.07 1016.19 1016.35 1016.47 1016.71 1016.83 1016.91 1017.11 1017.39 1017.55 1017.67 1017.91 1018.03 1018.23 1018.39 1018.55 1018.63 1018.67 1018.71 1018.79 1018.91 1018.95
1011.39 1011.63 1011.91 1012.19 1012.55 1012.79 1012.91 1013.11 1013.43 1013.67 1013.95 1014.19 1014.31 1014.43 1014.63 1014.87 1015.15 1015.35 1015.55 1015.75 1015.91 1015.99 1016.11 1016.27 1016.39 1016.43 1016.47 1016.59 1016.71 1016.99 1017.27 1017.43 1017.63 1017.83 1018.07 1018.23 1018.43 1018.59 1018.63 1018.59 1018.63 1018.63
1011.27 1011.51 1011.71 1012.03 1012.07 1012.27 1012.55 1012.87 1013.07 1013.31 1013.63 1013.91 1014.11 1014.27 1014.43 1014.55 1014.79 1015.11 1015.23 1015.31 1015.51 1015.67 1015.87 1015.91 1015.91 1015.91 1016.03 1016.31 1016.47 1016.59 1016.79 1017.11 1017.35 1017.55 1017.63 1017.87 1018.07 1018.31 1018.47 1018.43 1018.35 1018.35
1010.71 1011.03 1011.39 1011.51 1011.71 1011.99 1012.11 1012.31 1012.67 1013.07 1013.39 1013.55 1013.83 1014.07 1014.15 1014.31 1014.55 1014.59 1014.71 1014.87 1015.03 1015.19 1015.39 1015.39 1015.43 1015.35 1015.63 1015.91 1016.11 1016.31 1016.43 1016.63 1016.87 1017.19 1017.35 1017.55 1017.71 1017.87 1017.99 1018.07 1018.15 1018.19
1010.31 1010.75 1010.99 1011.19 1011.31 1011.43 1011.71 1012.03 1012.43 1012.71 1012.95 1013.23 1013.47 1013.43 1013.79 1014.19 1014.15 1014.27 1014.43 1014.47 1014.67 1014.87 1014.95 1014.83 1014.87 1014.83 1015.19 1015.43 1015.67 1015.87 1016.11 1016.31 1016.47 1016.67 1016.95 1017.11 1017.23 1017.39 1017.51 1017.67 1017.83 1018.03
1009.91 1010.31 1010.63 1010.75 1010.91 1011.27 1011.59 1011.95 1012.23 1012.39 1012.39 1012.47 1012.79 1013.15 1013.51 1013.59 1013.71 1013.91 1013.95 1014.11 1014.19 1014.31 1014.39 1014.39 1014.39 1014.35 1014.63 1014.91 1015.15 1015.39 1015.63 1016.03 1016.07 1016.23 1016.43 1016.59 1016.75 1016.87 1017.03 1017.23 1017.43 1017.71
1009.39 1009.71 1010.03 1010.23 1010.47 1010.83 1011.19 1011.55 1011.75 1011.87 1012.07 1012.15 1012.35 1012.59 1012.87 1013.07 1013.23 1013.51 1013.51 1013.63 1013.71 1013.79 1013.99 1014.03 1013.79 1013.75 1014.07 1014.31 1014.59 1014.91 1015.19 1015.67 1015.75 1015.87 1016.07 1016.19 1016.27 1016.35 1016.51 1016.67 1016.83 1017.03
1008.79 1009.15 1009.43 1009.67 1010.03 1010.35 1010.75 1010.99 1011.15 1011.31 1011.55 1011.59 1011.87 1011.99 1012.03 1012.23 1012.47 1012.63 1012.87 1012.99 1013.03 1013.23 1013.51 1013.55 1013.15 1013.15 1013.43 1013.75 1014.03 1014.39 1014.83 1015.43 1015.55 1015.71 1015.83 1015.91 1015.95 1016.03 1016.07 1016.15 1016.23 1016.43
1008.23 1008.59 1008.95 1009.23 1009.55 1009.99 1010.31 1010.47 1010.67 1010.83 1010.99 1011.15 1011.63 1011.67 1011.83 1011.91 1011.91 1011.99 1012.03 1012.31 1012.59 1012.79 1012.99 1012.91 1012.71 1012.59 1012.83 1013.11 1013.47 1013.87 1014.67 1015.11 1015.31 1015.47 1015.59 1015.67 1015.63 1015.55 1015.63 1015.67 1015.75 1015.79
1008.35 1008.35 1008.59 1008.83 1009.15 1009.51 1009.63 1009.71 1009.83 1010.03 1010.39 1010.55 1011.03 1011.27 1011.47 1011.31 1011.31 1011.47 1011.43 1011.51 1011.79 1012.03 1012.03 1012.31 1012.15 1011.99 1012.31 1012.59 1012.95 1013.47 1013.99 1014.47 1014.83 1015.15 1015.31 1015.39 1015.35 1015.23 1015.23 1015.31 1015.27 1015.27
1008.11 1008.19 1008.39 1008.55 1008.75 1008.83 1008.91 1009.27 1009.43 1009.59 1009.63 1009.91 1010.19 1010.43 1010.59 1010.63 1010.87 1011.03 1010.99 1010.99 1010.95 1011.07 1011.23 1011.59 1011.55 1011.51 1011.79 1012.11 1012.43 1012.95 1013.55 1013.83 1014.19 1014.63 1015.03 1015.03 1015.07 1015.03 1014.87 1014.91 1014.95 1014.87
1008.11 1008.03 1007.99 1008.19 1008.35 1008.39 1008.47 1008.63 1008.75 1009.07 1009.35 1009.55 1009.67 1009.79 1010.07 1010.23 1010.31 1010.47 1010.63 1010.51 1010.39 1010.59 1010.75 1010.83 1011.03 1011.03 1011.19 1011.51 1011.87 1012.39 1012.83 1013.15 1013.51 1014.19 1014.55 1014.55 1014.51 1014.63 1014.79 1014.71 1014.63 1014.67
Thickness
5791 5789 5787 5786 5785 5786 5786 5785 5785 5785 5785 5785 5785 5784 5785 5786 5787 5787 5787 5788 5787 5787 5787 5787 5787 5786 5786 5786 5785 5784 5784 5784 5784 5784 5785 5784 5784 5784 5784 5785 5785 5784
5794 5792 5790 5788 5787 5787 5788 5788 5788 5787 5787 5788 5789 5788 5788 5788 5788 5788 5788 5788 5788 5788 5788 5788 5788 5787 5787 5787 5786 5785 5785 5784 5785 5785 5785 5784 5785 5785 5785 5786 5786 5785
5796 5794 5792 5791 5790 5790 5790 5790 5790 5790 5790 5790 5791 5790 5790 5790 5789 5789 5789 5789 5789 5788 5788 5788 5788 5788 5788 5787 5787 5786 5786 5785 5785 5787 5786 5786 5786 5786 5786 5787 5787 5787
5798 5797 5796 5794 5793 5793 5791 5791 5790 5791 5791 5791 5792 5792 5792 5792 5791 5790 5790 5790 5790 5789 5789 5789 5789 5789 5789 5788 5787 5787 5787 5786 5787 5788 5786 5786 5787 5786 5787 5788 5788 5788
5800 5799 5798 5796 5795 5795 5793 5792 5792 5792 5792 5792 5793 5794 5793 5793 5792 5791 5790 5790 5790 5790 5789 5789 5789 5790 5789 5789 5788 5787 5787 5787 5788 5789 5787 5786 5787 5787 5788 5788 5788 5788
5800 5799 5799 5797 5796 5796 5795 5794 5795 5794 5794 5795 5795 5795 5795 5795 5793 5793 5792 5792 5791 5790 5790 5790 5789 5790 5791 5790 5789 5788 5788 5788 5788 5788 5787 5787 5788 5788 5789 5789 5788 5788
5800 5800 5799 5798 5796 5796 5795 5796 5796 5796 5796 5797 5797 5797 5797 5796 5795 5795 5795 5794 5793 5791 5791 5791 5790 5790 5791 5791 5789 5789 5788 5788 5788 5788 5787 5787 5788 5788 5789 5790 5789 5788
5801 5800 5799 5798 5797 5796 5795 5796 5797 5797 5799 5798 5798 5799 5799 5798 5798 5797 5797 5795 5794 5793 5792 5792 5791 5792 5792 5791 5790 5789 5789 5790 5789 5788 5788 5788 5788 5788 5789 5790 5789 5789
5800 5801 5800 5798 5797 5797 5796 5797 5798 5798 5799 5799 5799 5800 5801 5801 5800 5800 5798 5797 5795 5794 5794 5793 5792 5793 5793 5792 5791 5791 5790 5791 5791 5790 5789 5789 5788 5789 5790 5789 5789 5789
5800 5800 5800 5799 5799 5799 5799 5798 5798 5798 5799 5799 5800 5801 5801 5802 5802 5802 5800 5798 5796 5795 5794 5794 5794 5794 5794 5793 5793 5793 5793 5792 5792 5792 5791 5790 5790 5790 5790 5790 5789 5788
5801 5801 5801 5801 5802 5802 5801 5800 5799 5799 5798 5798 5799 5800 5801 5802 5802 5802 5800 5799 5798 5797 5796 5795 5795 5795 5794 5794 5795 5795 5795 5794 5794 5793 5793 5793 5792 5792 5791 5790 5789 5789
5801 5802 5804 5803 5803 5803 5803 5802 5801 5801 5800 5799 5799 5799 5800 5801 5801 5801 5801 5800 5799 5799 5798 5797 5797 5797 5796 5796 5796 5796 5796 5796 5795 5794 5794 5794 5794 5794 5793 5792 5791 5791
5804 5805 5805 5805 5804 5804 5803 5803 5803 5803 5802 5801 5801 5800 5799 5800 5801 5801 5801 5801 5801 5801 5800 5799 5799 5798 5798 5798 5797 5797 5797 5796 5796 5795 5795 5795 5795 5795 5795 5794 5794 5793
5806 5806 5805 5805 5805 5804 5803 5803 5804 5804 5804 5803 5802 5801 5800 5800 5800 5801 5801 5802 5801 5802 5801 5800 5800 5799 5798 5799 5798 5798 5797 5796 5796 5796 5795 5796 5796 5796 5796 5795 5795 5795
5805 5805 5805 5805 5804 5803 5804 5804 5804 5804 5804 5803 5803 5803 5802 5801 5801 5801 5800 5801 5801 5802 5802 5801 5800 5799 5800 5800 5799 5799 5798 5798 5797 5797 5796 5796 5796 5796 5796 5797 5796 5796
5802 5803 5803 5803 5803 5804 5804 5804 5804 5803 5802 5802 5803 5803 5803 5802 5801 5801 5801 5800 5801 5801 5801 5801 5801 5802 5802 5801 5801 5800 5800 5799 5798 5798 5797 5796 5796 5796 5795 5796 5797 5797
5801 5801 5802 5802 5804 5804 5804 5803 5803 5803 5802 5801 5801 5801 5802 5802 5801 5801 5802 5802 5801 5801 5801 5802 5803 5803 5802 5801 5801 5801 5801 5800 5799 5798 5798 5797 5796 5796 5795 5796 5797 5797
5802 5801 5801 5803 5805 5805 5805 5805 5803 5802 5802 5801 5801 5801 5801 5801 5801 5802 5803 5803 5802 5802 5802 5803 5805 5805 5804 5802 5801 5801 5801 5801 5800 5799 5798 5798 5798 5797 5797 5797 5797 5797
5803 5802 5802 5803 5805 5806 5806 5805 5803 5802 5803 5803 5803 5802 5800 5799 5800 5802 5803 5803 5803 5803 5804 5805 5806 5806 5805 5803 5802 5802 5801 5801 5801 5800 5800 5799 5799 5799 5798 5798 5798 5797
5805 5803 5802 5803 5804 5803 5803 5802 5802 5804 5805 5805 5804 5802 5801 5801 5802 5801 5802 5803 5804 5805 5805 5806 5807 5808 5806 5805 5803 5802 5801 5801 5800 5801 5801 5801 5801 5801 5800 5800 5799 5798
5807 5805 5804 5803 5803 5802 5801 5802 5802 5804 5805 5806 5805 5804 5803 5803 5803 5802 5803 5804 5805 5806 5806 5807 5810 5810 5808 5807 5806 5804 5802 5800 5800 5800 5800 5801 5802 5802 5802 5802 5801 5801
5811 5808 5805 5804 5803 5801 5800 5801 5802 5803 5804 5804 5804 5804 5805 5805 5805 5805 5805 5806 5807 5807 5806 5809 5812 5813 5811 5810 5809 5806 5802 5800 5799 5800 5800 5800 5801 5802 5802 5803 5803 5803
5812 5811 5808 5806 5804 5802 5801 5802 5803 5803 5803 5803 5802 5802 5804 5805 5806 5808 5808 5808 5807 5807 5808 5810 5814 5815 5813 5812 5810 5807 5803 5800 5799 5799 5798 5799 5800 5802 5803 5803 5804 5805
5810 5811 5810 5808 5807 5805 5805 5805 5805 5804 5804 5804 5803 5802 5803 5805 5807 5808 5810 5810 5810 5810 5812 5813 5815 5817 5815 5813 5811 5808 5804 5802 5800 5798 5797 5798 5799 5800 5802 5803 5804 5805
5808 5811 5811 5811 5810 5810 5810 5809 5807 5807 5806 5806 5806 5805 5805 5806 5807 5807 5809 5812 5813 5814 5815 5815 5816 5818 5817 5815 5812 5809 5806 5805 5803 5799 5798 5798 5799 5799 5801 5802 5803 5804
5805 5809 5811 5811 5812 5812 5812 5811 5810 5809 5808 5807 5807 5808 5807 5807 5808 5808 5809 5812 5815 5816 5816 5817 5819 5819 5818 5817 5814 5810 5808 5807 5804 5801 5800 5800 5800 5799 5799 5800 5801 5803